,,Stat5,,Stat1,,Stat2,,Stat3,,Stat4,,Wind1,,Wind1,
time,status,PA1M_AVG,status,PR1M_SUM,status,RH1M_AVG,status,SR1M_AVG,status,TA1M_AVG,status,W1dAve1m,status,W1sAve1m,
2003-05-05, 00:00:00,VALID,916.418,VALID,0,VALID,97.0959,VALID,0.0509425,VALID,21.0656,VALID,95,VALID,0,
2003-05-05, 00:01:00,VALID,916.415,VALID,0,VALID,96.7907,VALID,0.118866,VALID,21.03,VALID,95,VALID,0,
2003-05-05, 00:02:00,VALID,916.412,VALID,0,VALID,96.6877,VALID,0.0509425,VALID,20.9907,VALID,95,VALID,0,
2003-05-05, 00:03:00,VALID,916.403,VALID,0,VALID,96.7386,VALID,0.118866,VALID,20.9875,VALID,95,VALID,0,
2003-05-05, 00:04:00,VALID,916.407,VALID,0,VALID,96.7856,VALID,0.101885,VALID,21.0004,VALID,95,VALID,0.00982143,
2003-05-05, 00:05:00,VALID,916.4,VALID,0,VALID,96.7704,VALID,0.0679233,VALID,21.0206,VALID,95,VALID,0,
2003-05-05, 00:06:00,VALID,916.367,VALID,0,VALID,96.7615,VALID,0.101885,VALID,21.0101,VALID,95,VALID,0,
2003-05-05, 00:07:00,VALID,916.353,VALID,0,VALID,96.7424,VALID,0.101885,VALID,21.0077,VALID,95,VALID,0,
2003-05-05, 00:08:00,VALID,916.326,VALID,0,VALID,96.7551,VALID,0.135847,VALID,21.0012,VALID,95,VALID,0,
2003-05-05, 00:09:00,VALID,916.311,VALID,0,VALID,96.7475,VALID,0.0849042,VALID,20.9977,VALID,95,VALID,0,
2003-05-05, 00:10:00,VALID,916.288,VALID,0,VALID,96.7055,VALID,0.0849042,VALID,20.9877,VALID,95,VALID,0,
2003-05-05, 00:11:00,VALID,916.27,VALID,0,VALID,96.7742,VALID,0.101885,VALID,20.9972,VALID,95,VALID,0.0118371,
2003-05-05, 00:12:00,VALID,916.275,VALID,0,VALID,96.7945,VALID,0.0679233,VALID,21.0136,VALID,95,VALID,0.135417,
2003-05-05, 00:13:00,VALID,916.271,VALID,0,VALID,96.7907,VALID,0.101885,VALID,21.0198,VALID,95,VALID,0.220313,
2003-05-05, 00:14:00,VALID,916.255,VALID,0,VALID,96.8492,VALID,0.0509425,VALID,21.0131,VALID,95,VALID,0.131392,
2003-05-05, 00:15:00,VALID,916.242,VALID,0,VALID,96.9103,VALID,0.0849042,VALID,21.0098,VALID,95,VALID,0.0109797,
2003-05-05, 00:16:00,VALID,916.238,VALID,0,VALID,97.0133,VALID,0.118866,VALID,21.0335,VALID,95,VALID,0,
2003-05-05, 00:17:00,VALID,916.237,VALID,0,VALID,97.0896,VALID,0.118866,VALID,21.023,VALID,95,VALID,0,
2003-05-05, 00:18:00,VALID,916.226,VALID,0,VALID,97.1455,VALID,0.0679233,VALID,21.0373,VALID,95,VALID,0,
2003-05-05, 00:19:00,VALID,916.218,VALID,0,VALID,97.1315,VALID,0.0849042,VALID,21.0077,VALID,95,VALID,0,
2003-05-05, 00:20:00,VALID,916.203,VALID,0,VALID,96.6636,VALID,0.0849042,VALID,20.9559,VALID,95,VALID,0,
2003-05-05, 00:21:00,VALID,916.192,VALID,0,VALID,96.2516,VALID,0.0679233,VALID,20.8621,VALID,95,VALID,0,
2003-05-05, 00:22:00,VALID,916.191,VALID,0,VALID,96.3291,VALID,0.101885,VALID,20.8069,VALID,95,VALID,0,
2003-05-05, 00:23:00,VALID,916.193,VALID,0,VALID,96.5339,VALID,0.0509425,VALID,20.8004,VALID,95,VALID,0,
2003-05-05, 00:24:00,VALID,916.189,VALID,0,VALID,96.7233,VALID,0.0679233,VALID,20.7872,VALID,95,VALID,0,
2003-05-05, 00:25:00,VALID,916.162,VALID,0,VALID,96.82,VALID,0,VALID,20.7761,VALID,95,VALID,0,
2003-05-05, 00:26:00,VALID,916.144,VALID,0,VALID,96.9967,VALID,0,VALID,20.7758,VALID,95,VALID,0,
2003-05-05, 00:27:00,VALID,916.109,VALID,0,VALID,97.1531,VALID,0,VALID,20.7928,VALID,95,VALID,0,
2003-05-05, 00:28:00,VALID,916.082,VALID,0,VALID,97.0222,VALID,0,VALID,20.7793,VALID,95,VALID,0,
2003-05-05, 00:29:00,VALID,916.051,VALID,0,VALID,96.8034,VALID,-0.0339617,VALID,20.7402,VALID,95,VALID,0,
2003-05-05, 00:30:00,VALID,916.034,VALID,0,VALID,96.7907,VALID,-0.0339617,VALID,20.7052,VALID,95,VALID,0,
2003-05-05, 00:31:00,VALID,916.01,VALID,0,VALID,96.8098,VALID,0,VALID,20.6858,VALID,95,VALID,0,
2003-05-05, 00:32:00,VALID,915.998,VALID,0,VALID,96.7119,VALID,-0.0849042,VALID,20.6664,VALID,95,VALID,0,
2003-05-05, 00:33:00,VALID,915.972,VALID,0,VALID,96.6623,VALID,-0.0169808,VALID,20.6208,VALID,95,VALID,0,
2003-05-05, 00:34:00,VALID,915.97,VALID,0,VALID,96.7132,VALID,0,VALID,20.6146,VALID,95,VALID,0,
2003-05-05, 00:35:00,VALID,915.956,VALID,0,VALID,96.7767,VALID,0.0339617,VALID,20.602,VALID,95,VALID,0,
2003-05-05, 00:36:00,VALID,915.95,VALID,0,VALID,96.9001,VALID,-0.0169808,VALID,20.5987,VALID,95,VALID,0,
2003-05-05, 00:37:00,VALID,915.945,VALID,0,VALID,96.9649,VALID,-0.0169808,VALID,20.5823,VALID,95,VALID,0,
2003-05-05, 00:38:00,VALID,915.939,VALID,0,VALID,97.0641,VALID,-0.0339617,VALID,20.5758,VALID,95,VALID,0,
2003-05-05, 00:39:00,VALID,915.932,VALID,0,VALID,97.115,VALID,-0.0339617,VALID,20.5726,VALID,95,VALID,0,
2003-05-05, 00:40:00,VALID,915.939,VALID,0,VALID,97.1557,VALID,0.0679233,VALID,20.5454,VALID,95,VALID,0,
2003-05-05, 00:41:00,VALID,915.941,VALID,0,VALID,96.9611,VALID,0.0509425,VALID,20.5133,VALID,95,VALID,0.0416667,
2003-05-05, 00:42:00,VALID,915.955,VALID,0,VALID,97.148,VALID,0.0509425,VALID,20.4932,VALID,95,VALID,0.204427,
2003-05-05, 00:43:00,VALID,915.975,VALID,0,VALID,97.3896,VALID,0.0679233,VALID,20.4875,VALID,95,VALID,0.141518,
2003-05-05, 00:44:00,VALID,916.002,VALID,0,VALID,97.5639,VALID,0.135847,VALID,20.4869,VALID,95,VALID,0.200521,
2003-05-05, 00:45:00,VALID,916.022,VALID,0,VALID,97.7152,VALID,0.0849042,VALID,20.4875,VALID,95,VALID,0.220439,
2003-05-05, 00:46:00,VALID,916.04,VALID,0,VALID,97.7076,VALID,-0.0169808,VALID,20.4726,VALID,95,VALID,0.399127,
2003-05-05, 00:47:00,VALID,916.015,VALID,0,VALID,97.602,VALID,-0.0169808,VALID,20.4405,VALID,87,VALID,0.466619,
2003-05-05, 00:48:00,VALID,916.017,VALID,0,VALID,97.4431,VALID,0,VALID,20.3853,VALID,69,VALID,0.63151,
2003-05-05, 00:49:00,VALID,916.009,VALID,0,VALID,97.3718,VALID,-0.0169808,VALID,20.3362,VALID,54,VALID,0.629241,
2003-05-05, 00:50:00,VALID,916.008,VALID,0,VALID,97.3261,VALID,-0.0679233,VALID,20.3041,VALID,50,VALID,0.601799,
2003-05-05, 00:51:00,VALID,916.002,VALID,0,VALID,97.3769,VALID,-0.0339617,VALID,20.2686,VALID,49,VALID,0.624367,
2003-05-05, 00:52:00,VALID,915.972,VALID,0,VALID,97.424,VALID,-0.0169808,VALID,20.2559,VALID,40,VALID,0.669347,
2003-05-05, 00:53:00,VALID,915.953,VALID,0,VALID,97.911,VALID,0.0169808,VALID,20.2686,VALID,39,VALID,0.454072,
2003-05-05, 00:54:00,VALID,915.953,VALID,0,VALID,97.9873,VALID,0,VALID,20.2556,VALID,39,VALID,0.383898,
2003-05-05, 00:55:00,VALID,915.926,VALID,0,VALID,98.1068,VALID,0.0169808,VALID,20.2397,VALID,39,VALID,0.363393,
2003-05-05, 00:56:00,VALID,915.94,VALID,0,VALID,98.3866,VALID,0,VALID,20.2586,VALID,38,VALID,0.552083,
2003-05-05, 00:57:00,VALID,915.964,VALID,0,VALID,98.5328,VALID,-0.0509425,VALID,20.2925,VALID,29,VALID,0.489654,
2003-05-05, 00:58:00,VALID,915.971,VALID,0,VALID,98.6244,VALID,-0.0169808,VALID,20.2726,VALID,23,VALID,0.511029,
2003-05-05, 00:59:00,VALID,915.991,VALID,0,VALID,98.7172,VALID,-0.0679233,VALID,20.2756,VALID,23,VALID,0.588778,
2003-05-05, 01:00:00,VALID,916.004,VALID,0,VALID,98.8482,VALID,-0.0169808,VALID,20.275,VALID,6,VALID,0.60829,
2003-05-05, 01:01:00,VALID,916.004,VALID,0,VALID,98.9474,VALID,-0.0169808,VALID,20.2882,VALID,5,VALID,0.623214,
2003-05-05, 01:02:00,VALID,915.993,VALID,0,VALID,98.9804,VALID,0.0339617,VALID,20.2785,VALID,4,VALID,0.830256,
2003-05-05, 01:03:00,VALID,915.993,VALID,0,VALID,99.1292,VALID,-0.0169808,VALID,20.2877,VALID,14,VALID,0.75739,
2003-05-05, 01:04:00,VALID,915.984,VALID,0,VALID,99.203,VALID,-0.0169808,VALID,20.3138,VALID,23,VALID,0.648897,
2003-05-05, 01:05:00,VALID,915.978,VALID,0,VALID,99.2665,VALID,-0.0339617,VALID,20.3268,VALID,21,VALID,0.589725,
2003-05-05, 01:06:00,VALID,915.972,VALID,0,VALID,99.3327,VALID,-0.0169808,VALID,20.3596,VALID,21,VALID,0.651693,
2003-05-05, 01:07:00,VALID,915.974,VALID,0,VALID,99.3873,VALID,-0.0169808,VALID,20.3753,VALID,21,VALID,0.595089,
2003-05-05, 01:08:00,VALID,915.964,VALID,0,VALID,99.4051,VALID,-0.0509425,VALID,20.3947,VALID,21,VALID,0.533144,
2003-05-05, 01:09:00,VALID,915.97,VALID,0,VALID,99.3937,VALID,-0.0339617,VALID,20.3885,VALID,21,VALID,0.473395,
2003-05-05, 01:10:00,VALID,915.98,VALID,0,VALID,99.4395,VALID,-0.0169808,VALID,20.3979,VALID,21,VALID,0.304688,
2003-05-05, 01:11:00,VALID,915.973,VALID,0,VALID,99.4738,VALID,-0.0339617,VALID,20.4173,VALID,17,VALID,0.389915,
2003-05-05, 01:12:00,VALID,915.977,VALID,0,VALID,99.4916,VALID,0,VALID,20.447,VALID,14,VALID,0.186632,
2003-05-05, 01:13:00,VALID,915.984,VALID,0,VALID,99.5094,VALID,-0.0169808,VALID,20.4303,VALID,1,VALID,0.312946,
2003-05-05, 01:14:00,VALID,915.997,VALID,0,VALID,99.512,VALID,-0.0339617,VALID,20.4435,VALID,1,VALID,0.0705492,
2003-05-05, 01:15:00,VALID,915.993,VALID,0,VALID,99.5234,VALID,-0.0509425,VALID,20.4631,VALID,1,VALID,0.0101351,
2003-05-05, 01:16:00,VALID,915.989,VALID,0,VALID,99.5425,VALID,-0.0169808,VALID,20.4629,VALID,360,VALID,0.000919118,
2003-05-05, 01:17:00,VALID,915.958,VALID,0,VALID,99.5552,VALID,-0.0679233,VALID,20.4659,VALID,360,VALID,0,
2003-05-05, 01:18:00,VALID,915.934,VALID,0,VALID,99.5692,VALID,-0.0339617,VALID,20.4947,VALID,360,VALID,0,
2003-05-05, 01:19:00,VALID,915.907,VALID,0,VALID,99.587,VALID,-0.0339617,VALID,20.5014,VALID,360,VALID,0,
2003-05-05, 01:20:00,VALID,915.889,VALID,0,VALID,99.6022,VALID,0.0169808,VALID,20.5276,VALID,360,VALID,0.00828598,
2003-05-05, 01:21:00,VALID,915.871,VALID,0,VALID,99.6022,VALID,-0.0169808,VALID,20.5179,VALID,1,VALID,0.320313,
2003-05-05, 01:22:00,VALID,915.868,VALID,0,VALID,99.5984,VALID,0.0169808,VALID,20.5311,VALID,2,VALID,0.0301011,
2003-05-05, 01:23:00,VALID,915.879,VALID,0,VALID,99.6111,VALID,-0.0339617,VALID,20.5475,VALID,2,VALID,0.00118371,
2003-05-05, 01:24:00,VALID,915.906,VALID,0,VALID,99.6111,VALID,0,VALID,20.5437,VALID,2,VALID,0.00260417,
2003-05-05, 01:25:00,VALID,915.924,VALID,0,VALID,99.5984,VALID,0.0509425,VALID,20.5163,VALID,2,VALID,0,
2003-05-05, 01:26:00,VALID,915.919,VALID,0,VALID,99.5895,VALID,0.0339617,VALID,20.5034,VALID,2,VALID,0,
2003-05-05, 01:27:00,VALID,915.903,VALID,0,VALID,99.5972,VALID,0.0849042,VALID,20.5066,VALID,2,VALID,0.011402,
2003-05-05, 01:28:00,VALID,915.872,VALID,0,VALID,99.5908,VALID,0.101885,VALID,20.5193,VALID,2,VALID,0.277344,
2003-05-05, 01:29:00,VALID,915.838,VALID,0,VALID,99.6048,VALID,0.118866,VALID,20.5225,VALID,3,VALID,0.353693,
2003-05-05, 01:30:00,VALID,915.814,VALID,0,VALID,99.6175,VALID,0.0849042,VALID,20.5392,VALID,3,VALID,0.209201,
2003-05-05, 01:31:00,VALID,915.803,VALID,0,VALID,99.6226,VALID,0.0679233,VALID,20.5419,VALID,3,VALID,0.00513393,
2003-05-05, 01:32:00,VALID,915.778,VALID,0,VALID,99.6302,VALID,0.101885,VALID,20.5678,VALID,3,VALID,0,
2003-05-05, 01:33:00,VALID,915.777,VALID,0,VALID,99.6289,VALID,0.0849042,VALID,20.5778,VALID,3,VALID,0.00316723,
2003-05-05, 01:34:00,VALID,915.769,VALID,0,VALID,99.6137,VALID,0.0679233,VALID,20.5651,VALID,3,VALID,0.0673254,
2003-05-05, 01:35:00,VALID,915.75,VALID,0,VALID,99.6035,VALID,0.0509425,VALID,20.5486,VALID,3,VALID,0,
2003-05-05, 01:36:00,VALID,915.735,VALID,0,VALID,99.5933,VALID,0.0679233,VALID,20.5287,VALID,3,VALID,0,
2003-05-05, 01:37:00,VALID,915.705,VALID,0,VALID,99.5692,VALID,0.0509425,VALID,20.5166,VALID,3,VALID,0.08125,
2003-05-05, 01:38:00,VALID,915.67,VALID,0,VALID,99.5654,VALID,0.101885,VALID,20.5074,VALID,3,VALID,0.00236742,
2003-05-05, 01:39:00,VALID,915.636,VALID,0,VALID,99.5692,VALID,0.0849042,VALID,20.4872,VALID,3,VALID,0.0228041,
2003-05-05, 01:40:00,VALID,915.624,VALID,0,VALID,99.5616,VALID,0.101885,VALID,20.4802,VALID,3,VALID,0,
2003-05-05, 01:41:00,VALID,915.607,VALID,0,VALID,99.5539,VALID,0.101885,VALID,20.4743,VALID,3,VALID,0.00118371,
2003-05-05, 01:42:00,VALID,915.592,VALID,0,VALID,99.5437,VALID,0.0849042,VALID,20.4608,VALID,3,VALID,0.078559,
2003-05-05, 01:43:00,VALID,915.572,VALID,0,VALID,99.5514,VALID,0.0849042,VALID,20.4476,VALID,4,VALID,0.247768,
2003-05-05, 01:44:00,VALID,915.554,VALID,0,VALID,99.5399,VALID,0.0509425,VALID,20.432,VALID,32,VALID,0.125947,
2003-05-05, 01:45:00,VALID,915.541,VALID,0,VALID,99.5412,VALID,0.0509425,VALID,20.4088,VALID,79,VALID,0.263514,
2003-05-05, 01:46:00,VALID,915.526,VALID,0,VALID,99.5336,VALID,0.101885,VALID,20.4198,VALID,82,VALID,0.138097,
2003-05-05, 01:47:00,VALID,915.524,VALID,0,VALID,99.5221,VALID,0.118866,VALID,20.4001,VALID,82,VALID,0.0482955,
2003-05-05, 01:48:00,VALID,915.535,VALID,0,VALID,99.5209,VALID,0.101885,VALID,20.3778,VALID,82,VALID,0,
2003-05-05, 01:49:00,VALID,915.518,VALID,0,VALID,99.5285,VALID,0.0849042,VALID,20.3643,VALID,82,VALID,0,
2003-05-05, 01:50:00,VALID,915.502,VALID,0,VALID,99.545,VALID,0.0679233,VALID,20.3573,VALID,81,VALID,0.00118371,
2003-05-05, 01:51:00,VALID,915.477,VALID,0,VALID,99.5145,VALID,0.0849042,VALID,20.3452,VALID,81,VALID,0.157939,
2003-05-05, 01:52:00,VALID,915.452,VALID,0,VALID,99.5018,VALID,0.0679233,VALID,20.3161,VALID,81,VALID,0.1358,
2003-05-05, 01:53:00,VALID,915.421,VALID,0,VALID,99.4713,VALID,0.0679233,VALID,20.2934,VALID,81,VALID,0.0899621,
2003-05-05, 01:54:00,VALID,915.391,VALID,0,VALID,99.4026,VALID,0.0339617,VALID,20.2608,VALID,81,VALID,0.269965,
2003-05-05, 01:55:00,VALID,915.332,VALID,0,VALID,99.4013,VALID,0.0339617,VALID,20.2325,VALID,81,VALID,0.334598,
2003-05-05, 01:56:00,VALID,915.288,VALID,0,VALID,99.4458,VALID,0.135847,VALID,20.2419,VALID,81,VALID,0.33286,
2003-05-05, 01:57:00,VALID,915.255,VALID,0,VALID,99.4255,VALID,0.101885,VALID,20.2188,VALID,81,VALID,0.320524,
2003-05-05, 01:58:00,VALID,915.237,VALID,0,VALID,99.3835,VALID,0.101885,VALID,20.2158,VALID,81,VALID,0.141544,
2003-05-05, 01:59:00,VALID,915.231,VALID,0,VALID,99.3619,VALID,0.0679233,VALID,20.1964,VALID,81,VALID,0,
2003-05-05, 02:00:00,VALID,915.221,VALID,0,VALID,99.3644,VALID,0.0679233,VALID,20.1872,VALID,81,VALID,0,
2003-05-05, 02:01:00,VALID,915.232,VALID,0,VALID,99.3479,VALID,0.101885,VALID,20.1837,VALID,81,VALID,0,
2003-05-05, 02:02:00,VALID,915.227,VALID,0,VALID,99.3314,VALID,0.0679233,VALID,20.1773,VALID,81,VALID,0,
2003-05-05, 02:03:00,VALID,915.234,VALID,0,VALID,99.325,VALID,0.0509425,VALID,20.1641,VALID,81,VALID,0,
2003-05-05, 02:04:00,VALID,915.224,VALID,0,VALID,99.2869,VALID,0.101885,VALID,20.1738,VALID,81,VALID,0,
2003-05-05, 02:05:00,VALID,915.222,VALID,0,VALID,99.2691,VALID,0.135847,VALID,20.1611,VALID,81,VALID,0,
2003-05-05, 02:06:00,VALID,915.201,VALID,0,VALID,99.2907,VALID,0.118866,VALID,20.1581,VALID,81,VALID,0,
2003-05-05, 02:07:00,VALID,915.17,VALID,0,VALID,99.3047,VALID,0.101885,VALID,20.1581,VALID,81,VALID,0,
2003-05-05, 02:08:00,VALID,915.145,VALID,0,VALID,99.2945,VALID,0.0849042,VALID,20.1673,VALID,81,VALID,0,
2003-05-05, 02:09:00,VALID,915.118,VALID,0,VALID,99.3187,VALID,0.0509425,VALID,20.1681,VALID,81,VALID,0,
2003-05-05, 02:10:00,VALID,915.103,VALID,0,VALID,99.2742,VALID,0.0509425,VALID,20.1661,VALID,81,VALID,0,
2003-05-05, 02:11:00,VALID,915.11,VALID,0,VALID,99.2119,VALID,-0.0509425,VALID,20.1464,VALID,81,VALID,0,
2003-05-05, 02:12:00,VALID,915.108,VALID,0,VALID,99.1813,VALID,0.0169808,VALID,20.1101,VALID,81,VALID,0,
2003-05-05, 02:13:00,VALID,915.109,VALID,0,VALID,99.1546,VALID,-0.0169808,VALID,20.0783,VALID,81,VALID,0,
2003-05-05, 02:14:00,VALID,915.115,VALID,0,VALID,99.1737,VALID,0.0509425,VALID,20.0753,VALID,81,VALID,0,
2003-05-05, 02:15:00,VALID,915.102,VALID,0,VALID,99.1826,VALID,0.0169808,VALID,20.0589,VALID,81,VALID,0,
2003-05-05, 02:16:00,VALID,915.096,VALID,0,VALID,99.1724,VALID,0.0169808,VALID,20.0556,VALID,81,VALID,0,
2003-05-05, 02:17:00,VALID,915.107,VALID,0,VALID,99.0949,VALID,0,VALID,20.0168,VALID,78,VALID,0.0435606,
2003-05-05, 02:18:00,VALID,915.09,VALID,0,VALID,98.9677,VALID,-0.0169808,VALID,19.9688,VALID,47,VALID,0.355903,
2003-05-05, 02:19:00,VALID,915.096,VALID,0,VALID,98.8965,VALID,0,VALID,19.8907,VALID,45,VALID,0.669866,
2003-05-05, 02:20:00,VALID,915.106,VALID,0,VALID,98.9728,VALID,-0.0339617,VALID,19.8551,VALID,51,VALID,0.73911,
2003-05-05, 02:21:00,VALID,915.126,VALID,0,VALID,99.0555,VALID,0.0169808,VALID,19.8382,VALID,63,VALID,0.725507,
2003-05-05, 02:22:00,VALID,915.132,VALID,0,VALID,99.2945,VALID,0.0169808,VALID,19.8877,VALID,67,VALID,0.596507,
2003-05-05, 02:23:00,VALID,915.145,VALID,0,VALID,99.414,VALID,0.0509425,VALID,19.9203,VALID,67,VALID,0.533144,
2003-05-05, 02:24:00,VALID,915.161,VALID,0,VALID,99.3937,VALID,0.0169808,VALID,19.9298,VALID,67,VALID,0.540365,
2003-05-05, 02:25:00,VALID,915.167,VALID,0,VALID,99.4369,VALID,0.101885,VALID,19.9218,VALID,67,VALID,0.536384,
2003-05-05, 02:26:00,VALID,915.172,VALID,0,VALID,99.4954,VALID,0.101885,VALID,19.9283,VALID,71,VALID,0.584754,
2003-05-05, 02:27:00,VALID,915.161,VALID,0,VALID,99.5234,VALID,0.0849042,VALID,19.9447,VALID,74,VALID,0.499367,
2003-05-05, 02:28:00,VALID,915.168,VALID,0,VALID,99.5209,VALID,0.101885,VALID,19.9415,VALID,88,VALID,0.330653,
2003-05-05, 02:29:00,VALID,915.146,VALID,0,VALID,99.4039,VALID,0.0509425,VALID,19.9056,VALID,91,VALID,0.185606,
2003-05-05, 02:30:00,VALID,915.13,VALID,0,VALID,99.428,VALID,0.101885,VALID,19.8502,VALID,105,VALID,0.693576,
2003-05-05, 02:31:00,VALID,915.103,VALID,0,VALID,99.4967,VALID,0.0849042,VALID,19.8482,VALID,106,VALID,0.746205,
2003-05-05, 02:32:00,VALID,915.113,VALID,0,VALID,99.5043,VALID,0.118866,VALID,19.8514,VALID,137,VALID,0.518939,
2003-05-05, 02:33:00,VALID,915.115,VALID,0,VALID,99.5158,VALID,0.118866,VALID,19.8248,VALID,123,VALID,0.469172,
2003-05-05, 02:34:00,VALID,915.139,VALID,0,VALID,99.5387,VALID,0.101885,VALID,19.8022,VALID,112,VALID,0.690487,
2003-05-05, 02:35:00,VALID,915.158,VALID,0,VALID,99.5692,VALID,0.101885,VALID,19.8084,VALID,109,VALID,0.482955,
2003-05-05, 02:36:00,VALID,915.175,VALID,0,VALID,99.6251,VALID,0.118866,VALID,19.8318,VALID,127,VALID,0.603082,
2003-05-05, 02:37:00,VALID,915.176,VALID,0,VALID,99.6607,VALID,0.118866,VALID,19.8576,VALID,115,VALID,0.480035,
2003-05-05, 02:38:00,VALID,915.183,VALID,0,VALID,99.6696,VALID,0.0849042,VALID,19.8509,VALID,111,VALID,0.424716,
2003-05-05, 02:39:00,VALID,915.176,VALID,0,VALID,99.6595,VALID,0.0679233,VALID,19.8156,VALID,111,VALID,0.343539,
2003-05-05, 02:40:01,VALID,915.165,VALID,0,VALID,99.6531,VALID,0.0169808,VALID,19.8171,VALID,111,VALID,0.346048,
2003-05-05, 02:41:01,VALID,915.163,VALID,0,VALID,99.6607,VALID,0.0509425,VALID,19.8007,VALID,113,VALID,0.255919,
2003-05-05, 02:42:00,VALID,915.152,VALID,0,VALID,99.7116,VALID,0.0169808,VALID,19.8099,VALID,148,VALID,0.294922,
2003-05-05, 02:43:00,VALID,915.143,VALID,0,VALID,99.7396,VALID,0.0169808,VALID,19.8497,VALID,144,VALID,0.354464,
2003-05-05, 02:44:00,VALID,915.145,VALID,0,VALID,99.751,VALID,0.0169808,VALID,19.8624,VALID,126,VALID,0.34375,
2003-05-05, 02:45:00,VALID,915.15,VALID,0,VALID,99.7574,VALID,0.0169808,VALID,19.8527,VALID,50,VALID,0.486064,
2003-05-05, 02:46:01,VALID,915.146,VALID,0,VALID,99.7434,VALID,-0.0169808,VALID,19.8104,VALID,43,VALID,0.466452,
2003-05-05, 02:47:01,VALID,915.152,VALID,0,VALID,99.7243,VALID,-0.0339617,VALID,19.7942,VALID,20,VALID,0.236979,
2003-05-05, 02:48:00,VALID,915.184,VALID,0,VALID,99.7269,VALID,-0.0169808,VALID,19.781,VALID,20,VALID,0,
2003-05-05, 02:49:01,VALID,915.189,VALID,0,VALID,99.7319,VALID,-0.0169808,VALID,19.7848,VALID,20,VALID,0.0698661,
2003-05-05, 02:50:00,VALID,915.213,VALID,0,VALID,99.7459,VALID,0,VALID,19.785,VALID,8,VALID,0.431581,
2003-05-05, 02:51:00,VALID,915.213,VALID,0,VALID,99.7663,VALID,0,VALID,19.8079,VALID,3,VALID,0.432432,
2003-05-05, 02:52:01,VALID,915.214,VALID,0,VALID,99.7904,VALID,0,VALID,19.8236,VALID,4,VALID,0.54136,
2003-05-05, 02:53:01,VALID,915.21,VALID,0,VALID,99.8108,VALID,0.0169808,VALID,19.8462,VALID,11,VALID,0.816761,
2003-05-05, 02:54:00,VALID,915.199,VALID,0,VALID,99.793,VALID,-0.0339617,VALID,19.8139,VALID,25,VALID,0.873698,
2003-05-05, 02:55:00,VALID,915.207,VALID,0,VALID,99.7561,VALID,-0.0339617,VALID,19.7462,VALID,36,VALID,0.937723,
2003-05-05, 02:56:01,VALID,915.208,VALID,0,VALID,99.723,VALID,-0.0849042,VALID,19.6947,VALID,39,VALID,0.740294,
2003-05-05, 02:57:01,VALID,915.221,VALID,0,VALID,99.7307,VALID,-0.0509425,VALID,19.6649,VALID,42,VALID,0.813556,
2003-05-05, 02:58:01,VALID,915.235,VALID,0,VALID,99.7434,VALID,-0.0169808,VALID,19.6713,VALID,36,VALID,0.642923,
2003-05-05, 02:59:01,VALID,915.227,VALID,0,VALID,99.7637,VALID,-0.0169808,VALID,19.6586,VALID,36,VALID,0.596591,
2003-05-05, 03:00:00,VALID,915.234,VALID,0,VALID,99.7739,VALID,-0.0339617,VALID,19.6586,VALID,36,VALID,0.52691,
2003-05-05, 03:01:00,VALID,915.218,VALID,0,VALID,99.7866,VALID,-0.0339617,VALID,19.6584,VALID,36,VALID,0.501339,
2003-05-05, 03:02:00,VALID,915.212,VALID,0,VALID,99.8057,VALID,-0.0339617,VALID,19.6945,VALID,36,VALID,0.665956,
2003-05-05, 03:03:00,VALID,915.195,VALID,0,VALID,99.821,VALID,-0.0679233,VALID,19.7144,VALID,30,VALID,0.85114,
2003-05-05, 03:04:01,VALID,915.184,VALID,0,VALID,99.8388,VALID,-0.0169808,VALID,19.7101,VALID,24,VALID,0.930377,
2003-05-05, 03:05:01,VALID,915.183,VALID,0,VALID,99.8578,VALID,-0.0509425,VALID,19.7464,VALID,13,VALID,0.655066,
2003-05-05, 03:06:00,VALID,915.177,VALID,0,VALID,99.8616,VALID,-0.0679233,VALID,19.7721,VALID,22,VALID,0.874132,
2003-05-05, 03:07:01,VALID,915.195,VALID,0,VALID,99.8845,VALID,-0.0169808,VALID,19.7815,VALID,13,VALID,0.81875,
2003-05-05, 03:08:00,VALID,915.201,VALID,0,VALID,99.8833,VALID,0.0339617,VALID,19.8206,VALID,358,VALID,0.637074,
2003-05-05, 03:09:00,VALID,915.213,VALID,0,VALID,99.896,VALID,0.0169808,VALID,19.8459,VALID,340,VALID,0.692779,
2003-05-05, 03:10:01,VALID,915.217,VALID,0,VALID,99.9023,VALID,0.0849042,VALID,19.8795,VALID,333,VALID,0.377298,
2003-05-05, 03:11:01,VALID,915.221,VALID,0,VALID,99.9087,VALID,0.0849042,VALID,19.9158,VALID,335,VALID,0.213778,
2003-05-05, 03:12:00,VALID,915.221,VALID,0,VALID,99.9214,VALID,0.0849042,VALID,19.935,VALID,335,VALID,0.00954861,
2003-05-05, 03:13:00,VALID,915.209,VALID,0,VALID,99.9151,VALID,0.0509425,VALID,19.9609,VALID,339,VALID,0.0227679,
2003-05-05, 03:14:01,VALID,915.206,VALID,0,VALID,99.9252,VALID,0.0339617,VALID,19.987,VALID,343,VALID,0.094697,
2003-05-05, 03:15:01,VALID,915.181,VALID,0,VALID,99.9341,VALID,0.0849042,VALID,19.9999,VALID,353,VALID,0.61951,
2003-05-05, 03:16:01,VALID,915.155,VALID,0,VALID,99.9379,VALID,0.0679233,VALID,20.0096,VALID,7,VALID,0.627068,
2003-05-05, 03:17:01,VALID,915.133,VALID,0,VALID,99.9354,VALID,0.118866,VALID,20.0161,VALID,14,VALID,0.703835,
2003-05-05, 03:18:00,VALID,915.122,VALID,0,VALID,99.9265,VALID,0.0679233,VALID,20.039,VALID,22,VALID,0.597005,
2003-05-05, 03:19:00,VALID,915.121,VALID,0,VALID,99.9341,VALID,0.0509425,VALID,20.035,VALID,22,VALID,0.308482,
2003-05-05, 03:20:00,VALID,915.111,VALID,0,VALID,99.9367,VALID,0.0679233,VALID,20.0671,VALID,22,VALID,0.159564,
2003-05-05, 03:21:00,VALID,915.101,VALID,0,VALID,99.9494,VALID,0.0679233,VALID,20.1066,VALID,22,VALID,0.123733,
2003-05-05, 03:22:01,VALID,915.102,VALID,0,VALID,99.9379,VALID,0.0849042,VALID,20.1298,VALID,25,VALID,0.480699,
2003-05-05, 03:23:01,VALID,915.084,VALID,0,VALID,99.9418,VALID,0.0509425,VALID,20.1223,VALID,34,VALID,0.534328,
2003-05-05, 03:24:00,VALID,915.078,VALID,0,VALID,99.9392,VALID,0.0509425,VALID,20.1422,VALID,32,VALID,0.302083,
2003-05-05, 03:25:01,VALID,915.066,VALID,0,VALID,99.9316,VALID,-0.0679233,VALID,20.1149,VALID,31,VALID,0.376116,
2003-05-05, 03:26:00,VALID,915.062,VALID,0,VALID,99.9481,VALID,0.0169808,VALID,20.1211,VALID,30,VALID,0.0546875,
2003-05-05, 03:27:00,VALID,915.038,VALID,0,VALID,99.9507,VALID,-0.0169808,VALID,20.134,VALID,30,VALID,0.0551098,
2003-05-05, 03:28:01,VALID,915.03,VALID,0,VALID,99.9341,VALID,-0.0169808,VALID,20.127,VALID,30,VALID,0.0716912,
2003-05-05, 03:29:01,VALID,915.006,VALID,0,VALID,99.9341,VALID,0,VALID,20.1206,VALID,30,VALID,0.0182292,
2003-05-05, 03:30:00,VALID,914.99,VALID,0,VALID,99.9303,VALID,-0.0169808,VALID,20.1081,VALID,30,VALID,0.00130208,
2003-05-05, 03:31:00,VALID,914.972,VALID,0,VALID,99.929,VALID,0,VALID,20.0758,VALID,17,VALID,0.0180804,
2003-05-05, 03:32:01,VALID,914.959,VALID,0,VALID,99.9201,VALID,0,VALID,20.0397,VALID,326,VALID,0.268466,
2003-05-05, 03:33:01,VALID,914.953,VALID,0,VALID,99.9265,VALID,-0.0339617,VALID,20.0198,VALID,317,VALID,0.311022,
2003-05-05, 03:34:01,VALID,914.947,VALID,0,VALID,99.9265,VALID,0.0169808,VALID,20.0238,VALID,282,VALID,0.254366,
2003-05-05, 03:35:01,VALID,914.914,VALID,0,VALID,99.9227,VALID,0.0509425,VALID,20.0039,VALID,260,VALID,0.0776515,
2003-05-05, 03:36:00,VALID,914.896,VALID,0,VALID,99.9201,VALID,0.0169808,VALID,20.0203,VALID,260,VALID,0,
2003-05-05, 03:37:00,VALID,914.883,VALID,0,VALID,99.9189,VALID,-0.0339617,VALID,20.0074,VALID,256,VALID,0.0363839,